[[{"header":{"parameterUnit":"m.s-1","parameterCategory":1,"la1":30.2992,"la2":30.254,"lo1":-89.0895,"lo2":-89.0443,"dy":0.0025,"dx":0.0025,"nx":19,"ny":19,"refTime":"2026-04-15T03:00:00:Z","depth":0,"parameterNumber":2,"parameterNumberName":"U-component_of_WINDS"},"data":[0,0,0,-3.2835,-3.2837,-3.2908,-3.2909,-3.3002,-3.3003,0,0,0,0,0,0,0,0,0,0,0,-3.2816,-3.2817,-3.2835,-3.2837,-3.2908,-3.2909,-3.3002,-3.3003,0,0,0,0,0,0,0,0,0,0,0,-3.2816,-3.2817,-3.2818,-3.2837,-3.2908,-3.2909,-3.3002,-3.2947,0,0,0,0,0,0,0,0,0,0,-3.2877,-3.2861,-3.2816,-3.2818,-3.2838,-3.2908,-3.2909,-3.2944,-3.295,-3.2971,0,-3.2991,0,-3.2999,-3.3009,-3.301,0,0,0,-3.2835,-3.2856,-3.2874,-3.2818,-3.2838,-3.2908,-3.2876,-3.2947,-3.2954,-3.2979,-3.2992,-3.2995,-3.3,-3.301,-3.3011,-3.3139,-3.314,0,0,-3.2831,-3.283,-3.2869,-3.2879,-3.2869,-3.2873,-3.2878,-3.2952,-3.2965,-3.2992,-3.2998,-3.3002,-3.3011,-3.3011,-3.3138,-3.3139,0,0,0,-3.2821,-3.2827,-3.2843,-3.2875,-3.2888,-3.2875,-3.2881,-3.2962,-3.2967,-3.2999,-3.3003,-3.3011,-3.3012,-3.3138,-3.3139,-3.3172,0,0,0,-3.2818,-3.2821,-3.2841,-3.2841,-3.2887,-3.2926,-3.2889,-3.2962,-3.2971,-3.3002,-3.3011,-3.3013,-3.3137,-3.3138,-3.3169,-3.3186,0,0,0,-3.2811,-3.282,-3.2832,-3.2841,-3.2872,-3.2925,-3.2934,-3.2964,-3.2973,-3.301,-3.3014,-3.3136,-3.3138,-3.3167,-3.3183,-3.3219,0,0,0,-3.2801,-3.2859,-3.2832,-3.2899,-3.2871,-3.2946,-3.2934,-3.2989,-3.3025,-3.3012,-3.3137,-3.3139,-3.3166,-3.318,-3.3216,-3.3247,-3.3261,0,0,-3.2874,-3.2868,-3.2907,-3.2885,-3.2964,-3.2935,-3.3018,-3.3051,-3.3055,-3.3111,-3.3114,-3.317,-3.3182,-3.3218,-3.3341,-3.3352,0,0,0,-3.293,-3.2957,-3.2979,-3.3013,-3.3041,-3.3066,-3.3087,-3.3099,-3.3146,-3.3084,-3.3194,-3.3201,-3.3222,-3.3237,-3.3246,-3.3264,-3.3146,-3.3146,-3.3146,-3.3028,-3.3032,-3.3096,-3.3109,-3.3143,-3.3164,-3.3191,-3.3211,-3.3204,-3.323,-3.3246,-3.332,-3.3338,-3.3344,-3.3362,-3.3265,-3.3265,-3.3265,-3.3265,-3.3132,-3.3171,-3.3163,-3.3222,-3.3225,-3.3275,-3.3298,-3.3292,-3.3337,-3.3309,-3.3327,-3.3293,-3.3356,-3.3372,-3.3267,-3.3267,-3.3267,-3.3266,-3.3266,-3.3195,-3.3214,-3.323,-3.3281,-3.3319,-3.333,-3.3375,-3.3377,-3.3378,-3.3397,-3.3412,-3.3412,-3.341,-3.3405,-3.3405,-3.3405,-3.3406,-3.3406,-3.3406,-3.3252,-3.3269,-3.3307,-3.3343,-3.3366,-3.3396,-3.3419,-3.3441,-3.3466,-3.3463,-3.3463,-3.3452,-3.3363,-3.3339,-3.341,-3.3409,-3.3409,-3.3408,-3.3408,-3.3352,-3.333,-3.3389,-3.3412,-3.3454,-3.3492,-3.3495,-3.3539,-3.3558,-3.358,-3.3566,-3.3501,-3.3494,-3.3487,-3.3467,-3.3567,-3.3567,-3.3567,-3.3567,-3.3403,-3.3401,-3.3461,-3.3498,-3.3534,-3.3543,-3.3608,-3.3627,-3.3644,-3.3655,-3.3642,-3.3616,-3.3609,-3.3607,-3.3597,-3.3578,-3.3704,-3.3704,-3.3704,-3.3463,-3.3466,-3.352,-3.3538,-3.3571,-3.36,-3.3661,-3.3702,-3.3716,-3.371,-3.3664,-3.3658,-3.3617,-3.3604,-3.3593,-3.3578,-3.3543,0,0]},{"header":{"parameterUnit":"m.s-1","parameterCategory":1,"la1":30.2992,"la2":30.254,"lo1":-89.0895,"lo2":-89.0443,"dy":0.0025,"dx":0.0025,"nx":19,"ny":19,"refTime":"2026-04-15T03:00:00:Z","depth":0,"parameterNumber":3,"parameterNumberName":"V-component_of_WINDS"},"data":[0,0,0,2.0313,2.0313,2.0316,2.0316,2.0332,2.0333,0,0,0,0,0,0,0,0,0,0,0,2.0319,2.0319,2.0313,2.0313,2.0316,2.0316,2.0332,2.0333,0,0,0,0,0,0,0,0,0,0,0,2.0319,2.0319,2.032,2.0313,2.0316,2.0316,2.0332,2.0325,0,0,0,0,0,0,0,0,0,0,2.032,2.0333,2.0319,2.032,2.0313,2.0316,2.0316,2.0325,2.0326,2.0336,0,2.0347,0,2.034,2.0334,2.0335,0,0,0,2.0307,2.0332,2.0327,2.032,2.0313,2.0316,2.0313,2.0325,2.0326,2.0338,2.0347,2.0347,2.0341,2.0335,2.0335,2.0414,2.0414,0,0,2.0307,2.0323,2.0326,2.0328,2.0328,2.0313,2.0313,2.0326,2.0337,2.0347,2.0348,2.0341,2.0335,2.0335,2.0413,2.0414,0,0,0,2.031,2.0323,2.0317,2.0328,2.0327,2.0313,2.0313,2.0337,2.0333,2.0348,2.0341,2.0335,2.0335,2.0412,2.0413,2.0461,0,0,0,2.031,2.0325,2.0317,2.0327,2.0327,2.0332,2.0324,2.0333,2.0333,2.0341,2.0335,2.0336,2.0412,2.0413,2.0458,2.0481,0,0,0,2.0316,2.0326,2.0329,2.0328,2.033,2.0331,2.0329,2.0332,2.033,2.0335,2.0336,2.0411,2.0413,2.0456,2.0477,2.0508,0,0,0,2.0327,2.037,2.033,2.0375,2.033,2.0361,2.0328,2.035,2.036,2.0335,2.0412,2.0413,2.0455,2.0474,2.0505,2.0538,2.0553,0,0,2.039,2.0378,2.0404,2.0368,2.041,2.0359,2.0408,2.0401,2.0386,2.0405,2.0407,2.0459,2.0477,2.0507,2.0627,2.0639,0,0,0,2.0429,2.0448,2.0455,2.0466,2.0462,2.0462,2.0446,2.0443,2.0459,2.0399,2.0477,2.0487,2.0505,2.052,2.053,2.0545,2.042,2.042,2.042,2.0541,2.0521,2.0562,2.0543,2.0554,2.0538,2.0545,2.054,2.0515,2.0534,2.054,2.0615,2.0633,2.0641,2.0656,2.0554,2.0554,2.0554,2.0555,2.0633,2.0657,2.0625,2.0653,2.0632,2.0656,2.0643,2.0625,2.0644,2.0608,2.0623,2.0587,2.0654,2.0667,2.0558,2.0557,2.0557,2.0557,2.0556,2.0705,2.0713,2.071,2.0725,2.0739,2.0717,2.0738,2.0717,2.0698,2.0712,2.0717,2.0716,2.0714,2.0716,2.0716,2.0716,2.0716,2.0717,2.0717,2.0782,2.0777,2.0797,2.0799,2.0804,2.0808,2.0793,2.0798,2.0798,2.0781,2.0781,2.0756,2.0664,2.0642,2.0721,2.072,2.072,2.0719,2.0719,2.0884,2.0858,2.089,2.0895,2.0896,2.0912,2.0885,2.0897,2.0897,2.0908,2.088,2.0815,2.0802,2.0793,2.0775,2.0883,2.0883,2.0883,2.0883,2.0947,2.0938,2.0966,2.0977,2.0984,2.0964,2.1002,2.0991,2.0976,2.0976,2.0957,2.0931,2.0923,2.0914,2.0903,2.0886,2.102,2.102,2.102,2.1009,2.1,2.1036,2.1022,2.1021,2.1022,2.1057,2.1071,2.1048,2.1025,2.0975,2.097,2.0927,2.0914,2.0891,2.0875,2.0843,0,0]}]]